Orbital Elements at Epoch 2459000.5 (2020-May-31.0) TDB
Reference: JPL 10 (heliocentric ecliptic J2000)
Element | Value | Uncertainty (1-sigma) | Units |
e | .1001707187230134 | 8.0416e-08 | |
a | 2.245833090100353 | 1.8434e-08 | au |
q | 2.020866375333074 | 1.7659e-07 | au |
i | 6.052523573052662 | 1.6265e-05 | deg |
node | 197.2025990976498 | 8.0412e-05 | deg |
peri | 276.7494459942976 | 0.00012571 | deg |
M | 66.42170126276734 | 8.9418e-05 | deg |
tp | 2458773.684810249920 (2019-Oct-17.18481025) | 0.00030537 | TDB |
period | 1229.319134525083 3.37 | 1.5136e-05 4.144e-08 | d yr |
n | .2928450309520945 | 3.6056e-09 | deg/d |
Q | 2.470799804867631 | 2.0281e-08 | au |
|
| | Orbit Determination Parameters
Additional Information
|